Retour au catalogue

STARLINK-35290

ActifCommunicationsVLEO
NORAD 65846·PAYLOAD·🇺🇸 United States

Lancé Sep 29, 2025 depuis Vandenberg Space Force Base

Loading…

Prochains Passages (prochaines 24 heures)

TLE

FraisSource: CelesTrak SupGP

Époque: Sep 15, 2026, 02:34 UTC

1 65846C 25221Z   26258.10743056  .00014348  00000+0  42386-3 0  2583
2 65846  53.1572 284.9928 0001198  93.5575 271.7139 15.34388423    11

Suivez STARLINK-35290 en temps réel avec AllMySat

Download on the App Store